Satellite: NCUBE2
Catalog number: 28897
Epoch time:      07016.70484796
Element set:     171
Inclination:      098.1463 deg
RA of node:       276.3444 deg
Eccentricity:    0.0016362
Arg of perigee:   225.8472 deg
Mean anomaly:     134.1367 deg
Mean motion:   14.59662778 rev/day
Decay rate:       1.68e-06 rev/day^2
Epoch rev:            5727
Checksum:              338

Satellite: NMARS
Catalog number: 29662
Epoch time:      07017.53424854
Element set:      43
Inclination:      051.6370 deg
RA of node:       160.9124 deg
Eccentricity:    0.0012710
Arg of perigee:   118.1567 deg
Mean anomaly:     242.0729 deg
Mean motion:   15.85420081 rev/day
Decay rate:     6.9649e-04 rev/day^2
Epoch rev:             425
Checksum:              279

Satellite: FCAL
Catalog number: 29664
Epoch time:      07016.86345319
Element set:    0038
Inclination:      051.6339 deg
RA of node:       164.6721 deg
Eccentricity:    0.0016975
Arg of perigee:   111.9886 deg
Mean anomaly:     248.2926 deg
Mean motion:   15.83047280 rev/day
Decay rate:     2.4450e-04 rev/day^2
Epoch rev:           00412
Checksum:              307

/EX





More information about the Keps mailing list